GW1946 Weather Reports


time (UTC)temp
C
wind
direction
speed
KPH
gust
KPH
rain 1hr
cm
rain 24hr
cm
rain mn
cm
humidity
%
barometer
mb
20260504081556 11 185 3.2 8.0 0.00 0.00 0.00 53 997.3
20260504081050 11 167 3.2 11.3 0.00 0.00 0.00 54 997.4
20260504080550 11 149 3.2 11.3 0.00 0.00 0.00 53 997.5
20260504050550 6 0 0.0 0.0 0.00 0.00 0.00 80 1000.5
20260504045549 6 0 0.0 0.0 0.00 0.00 0.00 79 1000.7
20260504045051 7 0 0.0 0.0 0.00 0.00 0.00 78 1000.8
20260504044552 7 0 0.0 0.0 0.00 0.00 0.00 78 1000.9
20260504044050 7 0 0.0 0.0 0.00 0.00 0.00 78 1001.0
20260504043550 7 0 0.0 0.0 0.00 0.00 0.00 77 1001.0
20260504043053 7 0 0.0 0.0 0.00 0.00 0.00 77 1001.1
20260504042549 7 0 0.0 0.0 0.00 0.00 0.00 76 1001.1
20260504042050 7 0 0.0 0.0 0.00 0.00 0.00 76 1001.2
20260504041555 7 0 0.0 0.0 0.00 0.00 0.00 75 1001.2
20260504041049 8 0 0.0 0.0 0.00 0.00 0.00 74 1001.3
20260504040551 8 0 0.0 0.0 0.00 0.00 0.00 74 1001.4
20260504040053 8 0 0.0 0.0 0.00 0.00 0.00 73 1001.6
20260504035550 8 0 0.0 0.0 0.00 0.00 0.00 73 1001.7
20260504035050 8 0 0.0 0.0 0.00 0.00 0.00 72 1001.8
20260504034553 8 0 0.0 0.0 0.00 0.00 0.00 71 1001.9
20260504034054 8 0 0.0 1.6 0.00 0.00 0.00 70 1001.9
20260504033550 8 0 0.0 1.6 0.00 0.00 0.00 70 1002.1
20260504033054 8 0 0.0 1.6 0.00 0.00 0.00 69 1002.1
20260504032550 8 0 0.0 0.0 0.00 0.00 0.00 69 1002.3
20260504032050 8 0 0.0 0.0 0.00 0.00 0.00 69 1002.3
20260504031550 9 0 0.0 0.0 0.00 0.00 0.00 67 1002.4
20260504031049 9 0 0.0 0.0 0.00 0.00 0.00 67 1002.4
20260504030550 9 0 0.0 0.0 0.00 0.00 0.00 66 1002.4
20260504030053 9 0 0.0 0.0 0.00 0.00 0.00 66 1002.4
20260504025551 10 0 0.0 0.0 0.00 0.00 0.00 66 1002.5
20260504025051 10 0 0.0 0.0 0.00 0.00 0.00 65 1002.4
20260504024609 10 0 0.0 0.0 0.00 0.00 0.00 64 1002.4
20260504024049 10 0 0.0 1.6 0.00 0.00 0.00 64 1002.4
20260504023550 10 0 0.0 1.6 0.00 0.00 0.00 65 1002.4
20260504023054 11 0 0.0 1.6 0.00 0.00 0.00 62 1002.5
20260504022550 11 0 0.0 1.6 0.00 0.00 0.00 61 1002.5
20260504022052 11 0 0.0 1.6 0.00 0.00 0.00 62 1002.7
20260504021554 11 0 0.0 1.6 0.00 0.00 0.00 58 1002.7
20260504021050 12 0 0.0 1.6 0.00 0.00 0.00 58 1002.6
20260504020551 12 0 0.0 1.6 0.00 0.00 0.00 55 1002.6
20260504020051 12 0 0.0 0.0 0.00 0.00 0.00 55 1002.6
20260504015550 12 0 0.0 0.0 0.00 0.00 0.00 52 1002.8
20260504015050 13 0 0.0 0.0 0.00 0.00 0.00 52 1002.7
20260504014606 13 0 0.0 0.0 0.00 0.00 0.00 50 1002.7
20260504014049 14 0 0.0 0.0 0.00 0.00 0.00 49 1002.7
20260504013549 15 0 0.0 0.0 0.00 0.00 0.00 49 1002.8
20260504013101 15 0 0.0 0.0 0.00 0.00 0.00 46 1002.7
20260504012553 16 0 0.0 0.0 0.00 0.00 0.00 40 1002.7
20260504012051 16 0 0.0 1.6 0.00 0.00 0.00 36 1002.8
20260504011559 17 0 0.0 1.6 0.00 0.00 0.00 34 1002.8
20260504011050 17 0 0.0 0.0 0.00 0.00 0.00 32 1002.8
20260504010550 17 0 0.0 1.6 0.00 0.00 0.00 34 1002.8
20260504010105 18 0 0.0 3.2 0.00 0.00 0.00 31 1002.8
20260504005550 18 0 0.0 8.0 0.00 0.00 0.00 31 1002.7
20260504005050 18 324 1.6 8.0 0.00 0.00 0.00 30 1002.7
20260504004600 19 0 3.2 9.7 0.00 0.00 0.00 28 1002.7
20260504004050 19 287 3.2 14.5 0.00 0.00 0.00 28 1002.8
20260504003551 19 302 6.4 14.5 0.00 0.00 0.00 29 1002.9
20260504003059 19 287 3.2 11.3 0.00 0.00 0.00 28 1002.9
20260504002550 20 277 4.8 12.9 0.00 0.00 0.00 28 1002.9
20260504002050 20 0 6.4 14.5 0.00 0.00 0.00 30 1002.9
20260504001554 20 300 4.8 14.5 0.00 0.00 0.00 28 1003.0
20260504001050 20 260 6.4 19.3 0.00 0.00 0.00 28 1002.9
20260504000550 20 283 9.7 19.3 0.00 0.00 0.00 28 1002.9
20260504000128 20 336 6.4 19.3 0.00 0.00 0.00 27 1003.0
20260503235550 20 327 4.8 19.3 0.00 0.00 0.00 28 1003.0
20260503235049 21 313 8.0 19.3 0.00 0.00 0.00 27 1003.1
20260503234601 21 296 4.8 19.3 0.00 0.00 0.00 27 1003.0
20260503234052 21 327 6.4 19.3 0.00 0.00 0.00 28 1003.0
20260503233550 21 296 8.0 17.7 0.00 0.00 0.00 28 1003.0
20260503233049 21 302 6.4 16.1 0.00 0.00 0.00 27 1003.1
20260503232551 21 292 6.4 16.1 0.00 0.00 0.00 27 1003.1
20260503232050 20 287 8.0 17.7 0.00 0.00 0.00 28 1003.2
20260503231553 20 316 6.4 20.9 0.00 0.00 0.00 30 1003.2
20260503231050 21 317 11.3 20.9 0.00 0.00 0.00 27 1003.2
20260503230549 21 322 4.8 16.1 0.00 0.00 0.00 29 1003.3
20260503230050 20 296 8.0 19.3 0.00 0.00 0.00 29 1003.2
20260503225549 21 352 6.4 22.5 0.00 0.00 0.00 29 1003.2
20260503225049 21 292 12.9 22.5 0.00 0.00 0.00 28 1003.3
20260503224553 21 304 11.3 20.9 0.00 0.00 0.00 29 1003.3
20260503224053 21 300 11.3 19.3 0.00 0.00 0.00 29 1003.4
20260503223551 21 318 11.3 19.3 0.00 0.00 0.00 29 1003.4
20260503223052 21 345 9.7 22.5 0.00 0.00 0.00 30 1003.4
20260503222551 21 12 9.7 25.7 0.00 0.00 0.00 31 1003.4
20260503222051 21 347 8.0 25.7 0.00 0.00 0.00 27 1003.3
20260503221558 21 294 9.7 20.9 0.00 0.00 0.00 28 1003.4
20260503221050 21 295 8.0 22.5 0.00 0.00 0.00 27 1003.3
20260503220550 21 295 8.0 22.5 0.00 0.00 0.00 30 1003.3
20260503220056 21 313 11.3 22.5 0.00 0.00 0.00 28 1003.2
20260503215549 21 347 4.8 24.1 0.00 0.00 0.00 31 1003.2
20260503215050 21 331 14.5 24.1 0.00 0.00 0.00 30 1003.3
20260503214552 21 290 9.7 19.3 0.00 0.00 0.00 28 1003.2
20260503214051 21 333 6.4 25.7 0.00 0.00 0.00 29 1003.4
20260503213550 21 296 9.7 25.7 0.00 0.00 0.00 30 1003.4
20260503213051 21 315 11.3 22.5 0.00 0.00 0.00 33 1003.3
20260503212550 21 332 11.3 20.9 0.00 0.00 0.00 29 1003.2
20260503212050 21 327 9.7 24.1 0.00 0.00 0.00 30 1003.2
20260503211613 21 330 14.5 24.1 0.00 0.00 0.00 30 1003.4
20260503211050 21 303 9.7 22.5 0.00 0.00 0.00 34 1003.3
20260503210549 21 315 8.0 20.9 0.00 0.00 0.00 30 1003.5
20260503210050 21 292 8.0 29.0 0.00 0.00 0.00 31 1003.6
20260503205550 21 347 14.5 29.0 0.00 0.00 0.00 31 1003.6
20260503205050 21 325 11.3 27.4 0.00 0.00 0.00 30 1003.6
20260503204552 21 302 9.7 27.4 0.00 0.00 0.00 31 1003.7
20260503204051 21 315 14.5 27.4 0.00 0.00 0.00 30 1003.7
20260503203551 21 286 11.3 27.4 0.00 0.00 0.00 32 1003.8
20260503203105 20 360 16.1 27.4 0.00 0.00 0.00 29 1003.9
20260503202553 21 360 12.9 22.5 0.00 0.00 0.00 29 1003.9
20260503202054 20 302 9.7 22.5 0.00 0.00 0.00 32 1004.0
20260503201556 21 328 11.3 22.5 0.00 0.00 0.00 29 1004.0
20260503201049 20 294 12.9 29.0 0.00 0.00 0.00 29 1004.1
20260503200554 20 303 12.9 30.6 0.00 0.00 0.00 30 1004.2
20260503200053 20 300 17.7 30.6 0.00 0.00 0.00 33 1004.3
20260503195550 20 321 12.9 30.6 0.00 0.00 0.00 33 1004.2
20260503195049 20 333 14.5 29.0 0.00 0.00 0.00 35 1004.4
20260503194556 20 277 9.7 24.1 0.00 0.00 0.00 35 1004.3
20260503194055 20 302 9.7 29.0 0.00 0.00 0.00 36 1004.3
20260503193551 20 345 12.9 29.0 0.00 0.00 0.00 35 1004.4
20260503193052 20 306 12.9 25.7 0.00 0.00 0.00 35 1004.3
20260503192551 20 342 12.9 25.7 0.00 0.00 0.00 36 1004.3
20260503192050 20 352 11.3 30.6 0.00 0.00 0.00 37 1004.3
20260503191559 20 274 11.3 30.6 0.00 0.00 0.00 36 1004.4
20260503191053 20 20 14.5 22.5 0.00 0.00 0.00 33 1004.2
20260503190550 20 319 14.5 32.2 0.00 0.00 0.00 35 1004.3
20260503190053 20 318 11.3 32.2 0.00 0.00 0.00 35 1004.4
20260503185550 20 318 17.7 32.2 0.00 0.00 0.00 34 1004.4
20260503185050 20 13 12.9 30.6 0.00 0.00 0.00 36 1004.4
20260503184551 20 336 16.1 30.6 0.00 0.00 0.00 34 1004.5
20260503184053 20 300 12.9 27.4 0.00 0.00 0.00 36 1004.3
20260503183549 20 301 12.9 25.7 0.00 0.00 0.00 36 1004.4
20260503183053 20 360 11.3 25.7 0.00 0.00 0.00 38 1004.4
20260503182549 20 5 16.1 27.4 0.00 0.00 0.00 40 1004.6
20260503182051 20 311 11.3 27.4 0.00 0.00 0.00 39 1004.4
20260503181602 20 313 12.9 27.4 0.00 0.00 0.00 39 1004.6
20260503181051 19 360 11.3 27.4 0.00 0.00 0.00 36 1004.6
20260503180550 19 342 14.5 27.4 0.00 0.00 0.00 40 1004.7
20260503175551 19 341 16.1 27.4 0.00 0.00 0.00 38 1004.7
20260503175050 19 300 11.3 24.1 0.00 0.00 0.00 39 1004.7
20260503174610 19 294 12.9 24.1 0.00 0.00 0.00 40 1004.7
20260503174053 19 329 9.7 29.0 0.00 0.00 0.00 39 1004.7
20260503173550 19 347 14.5 29.0 0.00 0.00 0.00 41 1004.8
20260503173110 19 302 16.1 24.1 0.00 0.00 0.00 37 1004.8
20260503172549 19 335 16.1 24.1 0.00 0.00 0.00 40 1004.8
20260503172051 19 352 11.3 20.9 0.00 0.00 0.00 40 1004.8
20260503171603 19 329 12.9 30.6 0.00 0.00 0.00 42 1004.8
20260503171050 19 298 12.9 30.6 0.00 0.00 0.00 39 1004.8
20260503170550 19 331 12.9 30.6 0.00 0.00 0.00 42 1004.8
20260503170107 19 285 9.7 24.1 0.00 0.00 0.00 41 1004.7
20260503150550 16 315 11.3 22.5 0.00 0.00 0.00 52 1004.1
20260503131053 12 286 6.4 19.3 0.00 0.00 0.00 53 1003.5
20260503130550 12 300 8.0 19.3 0.00 0.00 0.00 54 1003.6
20260503110551 11 186 3.2 14.5 0.00 0.00 0.00 52 1002.5